KF7IOR Weather Reports


Display with metric or nautical units.
time (UTC)temp
F
wind
direction
speed
MPH
gust
MPH
rain 1hr
in
rain 24hr
in
rain mn
in
humidity
%
barometer
mb
20260507051034 55 5 2.0 10.0 0.00 0.00 0.00 75 1021.2
20260507050534 55 326 1.0 8.0 0.00 0.00 0.00 74 1021.2
20260507050043 56 352 3.0 10.0 0.00 0.00 0.00 74 1021.2
20260507045535 56 19 4.0 10.0 0.00 0.00 0.00 74 1021.3
20260507045035 56 20 2.0 8.0 0.00 0.00 0.00 74 1021.3
20260507044539 56 321 3.0 8.0 0.00 0.00 0.00 73 1021.2
20260507044036 57 46 3.0 14.0 0.00 0.00 0.00 73 1021.2
20260507043534 57 340 3.0 14.0 0.00 0.00 0.00 73 1021.2
20260507043035 57 298 3.0 13.0 0.00 0.00 0.00 73 1021.1
20260507042536 57 352 4.0 13.0 0.00 0.00 0.00 73 1021.0
20260507042035 57 26 3.0 12.0 0.00 0.00 0.00 73 1020.9
20260507041553 57 17 6.0 12.0 0.00 0.00 0.00 72 1020.9
20260507041038 57 321 2.0 10.0 0.00 0.00 0.00 72 1021.0
20260507040536 57 42 4.0 10.0 0.00 0.00 0.00 72 1020.9
20260507040051 58 312 3.0 10.0 0.00 0.00 0.00 72 1020.9
20260507035535 58 29 5.0 11.0 0.00 0.00 0.00 72 1020.8
20260507035035 58 344 5.0 11.0 0.00 0.00 0.00 71 1020.7
20260507034539 58 349 3.0 9.0 0.00 0.00 0.00 71 1020.7
20260507034035 58 318 2.0 9.0 0.00 0.00 0.00 71 1020.7
20260507033538 58 343 3.0 9.0 0.00 0.00 0.00 71 1020.6
20260507033044 59 5 2.0 7.0 0.00 0.00 0.00 71 1020.6
20260507032535 59 298 3.0 11.0 0.00 0.00 0.00 71 1020.4
20260507032034 59 319 3.0 11.0 0.00 0.00 0.00 71 1020.4
20260507031538 59 5 4.0 10.0 0.00 0.00 0.00 71 1020.3
20260507031035 59 348 3.0 10.0 0.00 0.00 0.00 70 1020.3
20260507030535 59 306 4.0 10.0 0.00 0.00 0.00 70 1020.1
20260507030049 60 39 4.0 8.0 0.00 0.00 0.00 70 1020.0
20260507025534 60 352 3.0 8.0 0.00 0.00 0.00 70 1020.0
20260507025035 60 351 3.0 8.0 0.00 0.00 0.00 70 1020.0
20260507024542 60 350 2.0 8.0 0.00 0.00 0.00 70 1019.9
20260507024036 61 290 2.0 8.0 0.00 0.00 0.00 69 1019.8
20260507023535 61 335 3.0 7.0 0.00 0.00 0.00 69 1019.8
20260507023046 61 305 2.0 6.0 0.00 0.00 0.00 69 1019.9
20260507022535 61 360 2.0 6.0 0.00 0.00 0.00 69 1019.8
20260507022038 62 5 3.0 9.0 0.00 0.00 0.00 68 1019.7
20260507021545 62 289 4.0 9.0 0.00 0.00 0.00 68 1019.8
20260507021035 62 11 2.0 6.0 0.00 0.00 0.00 67 1019.8
20260507020536 63 352 2.0 6.0 0.00 0.00 0.00 67 1019.8
20260507020047 63 309 1.0 5.0 0.00 0.00 0.00 68 1019.8
20260507015534 63 352 2.0 6.0 0.00 0.00 0.00 68 1019.8
20260507015035 63 13 1.0 6.0 0.00 0.00 0.00 67 1019.8
20260507014558 63 360 1.0 8.0 0.00 0.00 0.00 67 1019.9
20260507014035 63 332 3.0 8.0 0.00 0.00 0.00 67 1019.9
20260507013535 64 27 4.0 11.0 0.00 0.00 0.00 66 1019.9
20260507013108 64 10 4.0 11.0 0.00 0.00 0.00 67 1020.0
20260507012535 64 314 1.0 10.0 0.00 0.00 0.00 67 1019.9
20260507012035 64 341 2.0 14.0 0.00 0.00 0.00 66 1019.9
20260507011545 64 350 3.0 14.0 0.00 0.00 0.00 65 1019.9
20260507011036 65 290 5.0 12.0 0.00 0.00 0.00 64 1020.0
20260507010535 65 352 4.0 15.0 0.00 0.00 0.00 64 1019.8
20260507010044 65 16 6.0 15.0 0.00 0.00 0.00 64 1019.8
20260507005535 66 5 4.0 12.0 0.00 0.00 0.00 64 1019.9
20260507005034 66 320 3.0 12.0 0.00 0.00 0.00 64 1019.9
20260507004550 65 334 3.0 9.0 0.00 0.00 0.00 64 1019.8
20260507004035 65 22 3.0 10.0 0.00 0.00 0.00 65 1019.8
20260507003535 65 281 4.0 10.0 0.00 0.00 0.00 64 1019.8
20260507003044 66 334 3.0 11.0 0.00 0.00 0.00 64 1019.8
20260507002536 66 332 4.0 11.0 0.00 0.00 0.00 63 1019.7
20260507002036 67 24 3.0 11.0 0.00 0.00 0.00 63 1019.7
20260507001604 66 26 4.0 11.0 0.00 0.00 0.00 63 1019.6
20260507001037 67 344 5.0 10.0 0.00 0.00 0.00 63 1019.7
20260507000537 67 17 1.0 9.0 0.00 0.00 0.00 64 1019.7
20260507000049 67 316 3.0 9.0 0.00 0.00 0.00 65 1019.6
20260506235537 67 325 3.0 9.0 0.00 0.00 0.00 66 1019.7
20260506235035 67 326 3.0 9.0 0.00 0.00 0.00 65 1019.5
20260506234546 68 30 4.0 8.0 0.00 0.00 0.00 64 1019.6
20260506234041 68 348 3.0 8.0 0.00 0.00 0.00 62 1019.6
20260506233537 69 319 2.0 7.0 0.00 0.00 0.00 63 1019.5
20260506233047 69 311 2.0 8.0 0.00 0.00 0.00 63 1019.6
20260506232535 69 336 3.0 8.0 0.00 0.00 0.00 62 1019.5
20260506232035 70 352 3.0 6.0 0.00 0.00 0.00 63 1019.6
20260506231546 70 323 1.0 5.0 0.00 0.00 0.00 63 1019.5
20260506231035 69 119 2.0 6.0 0.00 0.00 0.00 62 1019.6
20260506230535 69 251 2.0 6.0 0.00 0.00 0.00 62 1019.5
20260506230042 69 5 3.0 5.0 0.00 0.00 0.00 61 1019.6
20260506225535 70 64 1.0 4.0 0.00 0.00 0.00 61 1019.6
20260506225039 69 10 1.0 3.0 0.00 0.00 0.00 61 1019.7
20260506224550 70 340 1.0 4.0 0.00 0.00 0.00 61 1019.7
20260506224034 69 168 1.0 4.0 0.00 0.00 0.00 60 1019.8
20260506223535 69 213 0.0 2.0 0.00 0.00 0.00 61 1019.8
20260506223102 68 328 0.0 3.0 0.00 0.00 0.00 63 1019.9
20260506222535 68 215 2.0 3.0 0.00 0.00 0.00 62 1020.0
20260506222036 69 241 1.0 3.0 0.00 0.00 0.00 61 1019.9
20260506221545 69 15 1.0 4.0 0.00 0.00 0.00 62 1019.9
20260506221035 69 309 1.0 4.0 0.00 0.00 0.00 62 1020.0
20260506220535 68 360 2.0 5.0 0.00 0.00 0.00 64 1020.1
20260506220045 66 86 2.0 6.0 0.00 0.00 0.00 65 1020.2
20260506215535 67 325 3.0 6.0 0.00 0.00 0.00 66 1020.2
20260506215035 67 316 2.0 5.0 0.00 0.00 0.00 66 1020.2
20260506214542 66 13 1.0 3.0 0.00 0.00 0.00 66 1020.1
20260506214034 66 55 1.0 3.0 0.00 0.00 0.00 65 1020.0
20260506213534 67 200 1.0 6.0 0.00 0.00 0.00 64 1020.1
20260506213042 68 324 1.0 6.0 0.00 0.00 0.00 66 1020.1
20260506212535 68 263 1.0 5.0 0.00 0.00 0.00 65 1020.2
20260506212036 67 293 2.0 5.0 0.00 0.00 0.00 65 1020.3
20260506211547 67 292 3.0 5.0 0.00 0.00 0.00 64 1020.3
20260506211036 68 340 1.0 2.0 0.00 0.00 0.00 63 1020.4
20260506210536 67 69 1.0 3.0 0.00 0.00 0.00 67 1020.4
20260506210047 67 167 0.0 3.0 0.00 0.00 0.00 67 1020.5
20260506205534 67 133 1.0 3.0 0.00 0.00 0.00 67 1020.5
20260506205034 66 76 1.0 3.0 0.00 0.00 0.00 67 1020.5
20260506204545 66 31 1.0 3.0 0.00 0.00 0.00 67 1020.6
20260506204034 64 159 0.0 3.0 0.00 0.00 0.00 69 1020.5
20260506203537 65 99 1.0 4.0 0.00 0.00 0.00 68 1020.6
20260506203047 65 83 1.0 4.0 0.00 0.00 0.00 70 1020.5
20260506202534 64 117 1.0 4.0 0.00 0.00 0.00 69 1020.5
20260506202037 64 360 0.0 3.0 0.00 0.00 0.00 72 1020.5
20260506201545 63 127 1.0 3.0 0.00 0.00 0.00 70 1020.4
20260506201050 63 191 1.0 4.0 0.00 0.00 0.00 72 1020.5
20260506200535 64 57 1.0 4.0 0.00 0.00 0.00 71 1020.6
20260506195535 63 22 0.0 3.0 0.00 0.00 0.00 70 1020.7
20260506195034 63 23 1.0 3.0 0.00 0.00 0.00 71 1020.8
20260506194541 62 119 1.0 3.0 0.00 0.00 0.00 73 1020.8
20260506194035 61 321 1.0 3.0 0.00 0.00 0.00 74 1020.9
20260506193538 61 335 1.0 2.0 0.00 0.00 0.00 74 1020.9
20260506193041 61 71 1.0 3.0 0.00 0.00 0.00 74 1020.9
20260506192535 61 19 1.0 4.0 0.00 0.00 0.00 75 1020.9
20260506192037 61 5 1.0 4.0 0.00 0.00 0.00 75 1020.9
20260506191548 61 352 1.0 3.0 0.00 0.00 0.00 74 1020.9
20260506191035 61 346 1.0 3.0 0.00 0.00 0.00 74 1020.8
20260506190534 61 140 1.0 2.0 0.00 0.00 0.00 75 1020.8
20260506190045 60 110 1.0 2.0 0.00 0.00 0.00 75 1020.8
20260506185535 61 0 0.0 3.0 0.00 0.00 0.00 75 1020.8
20260506185034 61 9 1.0 3.0 0.00 0.00 0.00 75 1020.8
20260506184540 61 261 0.0 2.0 0.00 0.00 0.00 76 1020.7
20260506184036 60 236 1.0 2.0 0.00 0.00 0.00 76 1020.8
20260506183535 61 279 0.0 2.0 0.00 0.00 0.00 74 1020.8
20260506183047 61 168 1.0 3.0 0.00 0.00 0.00 75 1020.7
20260506182534 60 172 1.0 3.0 0.00 0.00 0.00 75 1020.7
20260506182034 60 126 1.0 3.0 0.00 0.00 0.00 75 1020.7
20260506181545 60 257 1.0 3.0 0.00 0.00 0.00 76 1020.8
20260506181035 60 256 0.0 2.0 0.00 0.00 0.00 76 1020.8
20260506180536 59 0 1.0 2.0 0.00 0.00 0.00 75 1020.8
20260506180052 60 139 0.0 2.0 0.00 0.00 0.00 76 1020.8
20260506175535 59 156 0.0 2.0 0.00 0.00 0.00 77 1020.7
20260506175034 59 0 0.0 2.0 0.00 0.00 0.00 77 1020.7
20260506174543 59 0 0.0 2.0 0.00 0.00 0.00 77 1020.9
20260506174037 58 69 0.0 2.0 0.00 0.00 0.00 77 1020.7
20260506173535 58 0 0.0 2.0 0.00 0.00 0.00 77 1020.6
20260506173041 59 360 1.0 3.0 0.00 0.00 0.00 77 1020.6
20260506172535 59 0 0.0 3.0 0.00 0.00 0.00 76 1020.6
20260506172034 59 144 2.0 3.0 0.00 0.00 0.00 76 1020.5
20260506171550 58 128 1.0 2.0 0.00 0.00 0.00 77 1020.5
20260506171034 58 25 1.0 2.0 0.00 0.00 0.00 77 1020.5
20260506170538 58 0 0.0 2.0 0.00 0.00 0.00 77 1020.5
20260506170042 59 333 0.0 2.0 0.00 0.00 0.00 78 1020.5
20260506165537 58 83 0.0 3.0 0.00 0.00 0.00 78 1020.4
20260506165035 58 333 0.0 3.0 0.00 0.00 0.00 78 1020.6
20260506164539 58 348 0.0 2.0 0.00 0.00 0.00 78 1020.6
20260506164035 58 331 1.0 3.0 0.00 0.00 0.00 79 1020.6
20260506163535 57 352 0.0 3.0 0.00 0.00 0.00 78 1020.6
20260506163050 57 5 1.0 2.0 0.00 0.00 0.00 78 1020.6
20260506162534 57 320 1.0 2.0 0.00 0.00 0.00 79 1020.6
20260506162036 57 340 0.0 2.0 0.00 0.00 0.00 79 1020.6
20260506161553 58 60 0.0 2.0 0.00 0.00 0.00 78 1020.4
20260506161038 57 0 0.0 2.0 0.00 0.00 0.00 78 1020.4
20260506160538 57 26 0.0 2.0 0.00 0.00 0.00 79 1020.4
20260506160046 57 325 1.0 2.0 0.00 0.00 0.00 79 1020.4
20260506155537 57 272 0.0 2.0 0.00 0.00 0.00 79 1020.1
20260506155036 57 16 0.0 3.0 0.00 0.00 0.00 80 1020.1
20260506154543 57 49 1.0 3.0 0.00 0.00 0.00 78 1019.9
20260506154035 57 81 0.0 2.0 0.00 0.00 0.00 80 1019.8
20260506153536 57 182 0.0 3.0 0.00 0.00 0.00 80 1019.9
20260506153041 56 0 0.0 3.0 0.00 0.00 0.00 80 1020.0
20260506152536 56 90 1.0 2.0 0.00 0.00 0.00 81 1020.3
20260506152036 56 19 1.0 3.0 0.00 0.00 0.00 81 1020.4
20260506151547 56 352 1.0 4.0 0.00 0.00 0.00 81 1020.5
20260506151035 56 40 1.0 6.0 0.00 0.00 0.00 81 1020.6
20260506150535 56 26 2.0 6.0 0.00 0.00 0.00 81 1020.5
20260506150047 56 296 1.0 8.0 0.00 0.00 0.00 81 1020.6
20260506145536 56 13 2.0 8.0 0.00 0.00 0.00 81 1020.5
20260506145035 56 321 3.0 8.0 0.00 0.00 0.00 81 1020.5
20260506144540 56 318 2.0 5.0 0.00 0.00 0.00 81 1020.3
20260506144035 56 5 1.0 5.0 0.00 0.00 0.00 81 1020.1
20260506143535 56 349 2.0 5.0 0.00 0.00 0.00 81 1020.3
20260506143051 56 360 2.0 5.0 0.00 0.00 0.00 81 1020.3
20260506142536 56 329 1.0 3.0 0.00 0.00 0.00 81 1020.1
20260506142036 56 315 1.0 2.0 0.00 0.00 0.00 81 1020.0
20260506141542 56 336 0.0 3.0 0.00 0.00 0.00 81 1019.8
20260506141036 56 352 0.0 3.0 0.00 0.00 0.00 82 1019.7
20260506140536 56 300 1.0 3.0 0.00 0.00 0.00 81 1019.6
20260506140050 56 0 1.0 3.0 0.00 0.00 0.00 81 1019.7
20260506135535 56 22 0.0 2.0 0.00 0.00 0.00 82 1019.7
20260506135035 56 0 0.0 5.0 0.00 0.00 0.00 82 1019.7
20260506134610 56 352 1.0 5.0 0.00 0.00 0.00 82 1019.6
20260506134035 56 311 2.0 3.0 0.00 0.00 0.00 82 1019.5
20260506133535 56 334 0.0 2.0 0.00 0.00 0.00 82 1019.5
20260506133041 56 17 0.0 2.0 0.00 0.00 0.00 82 1019.6
20260506132535 56 324 1.0 2.0 0.00 0.00 0.00 83 1019.5
20260506132035 56 0 0.0 2.0 0.00 0.00 0.00 82 1019.4
20260506131604 56 360 0.0 2.0 0.00 0.00 0.00 82 1019.4
20260506131035 56 0 0.0 2.0 0.00 0.00 0.00 82 1019.2
20260506130535 56 0 0.0 0.0 0.00 0.00 0.00 82 1019.1
20260506130045 56 0 0.0 0.0 0.00 0.00 0.00 82 1019.1
20260506125535 56 0 0.0 0.0 0.00 0.00 0.00 82 1019.1
20260506125036 56 0 0.0 0.0 0.00 0.00 0.00 82 1018.9
20260506124540 56 0 0.0 0.0 0.00 0.00 0.00 82 1018.9
20260506124037 56 0 0.0 2.0 0.00 0.00 0.00 82 1018.9
20260506123537 56 0 0.0 2.0 0.00 0.00 0.00 82 1018.9
20260506123048 56 9 0.0 2.0 0.00 0.00 0.00 81 1018.9
20260506122536 56 0 0.0 2.0 0.00 0.00 0.00 82 1018.9
20260506122036 56 0 0.0 2.0 0.00 0.00 0.00 81 1018.9
20260506121545 56 0 0.0 2.0 0.00 0.00 0.00 82 1018.9
20260506121035 56 0 0.0 3.0 0.00 0.00 0.00 81 1019.0
20260506120535 56 343 1.0 3.0 0.00 0.00 0.00 81 1019.0
20260506120047 56 5 0.0 2.0 0.00 0.00 0.00 81 1018.9
20260506115537 56 0 0.0 2.0 0.00 0.00 0.00 81 1018.9
20260506115036 56 13 1.0 2.0 0.00 0.00 0.00 81 1018.9
20260506114548 56 0 0.0 2.0 0.00 0.00 0.00 81 1018.8
20260506114036 56 25 0.0 4.0 0.00 0.00 0.00 81 1018.7
20260506113537 56 288 1.0 4.0 0.00 0.00 0.00 81 1018.6
20260506113043 56 31 1.0 4.0 0.00 0.00 0.00 81 1018.6
20260506112536 56 352 1.0 4.0 0.00 0.00 0.00 81 1018.7
20260506112035 56 340 1.0 4.0 0.00 0.00 0.00 81 1018.6
20260506111602 56 342 0.0 5.0 0.00 0.00 0.00 81 1018.5
20260506111035 56 274 0.0 5.0 0.00 0.00 0.00 81 1018.5
20260506110537 56 331 2.0 5.0 0.00 0.00 0.00 80 1018.5
20260506110045 56 347 1.0 3.0 0.00 0.00 0.00 80 1018.4
20260506105536 57 333 1.0 3.0 0.00 0.00 0.00 80 1018.3
20260506105036 57 0 0.0 3.0 0.00 0.00 0.00 80 1018.2
20260506104544 57 279 1.0 3.0 0.00 0.00 0.00 80 1018.2
20260506104035 57 333 1.0 4.0 0.00 0.00 0.00 80 1018.0
20260506103535 57 344 1.0 4.0 0.00 0.00 0.00 79 1017.9
20260506103041 57 10 1.0 3.0 0.00 0.00 0.00 79 1018.0
20260506102535 57 5 0.0 2.0 0.00 0.00 0.00 79 1018.0
20260506102037 57 340 1.0 3.0 0.00 0.00 0.00 79 1017.8
20260506101549 57 0 1.0 3.0 0.00 0.00 0.00 79 1017.7
20260506101036 57 0 0.0 3.0 0.00 0.00 0.00 79 1017.6
20260506100536 57 24 1.0 3.0 0.00 0.00 0.00 79 1017.6
20260506100038 57 9 0.0 3.0 0.00 0.00 0.00 79 1017.5
20260506095536 57 10 0.0 3.0 0.00 0.00 0.00 79 1017.6
20260506095040 57 5 0.0 4.0 0.00 0.00 0.00 79 1017.4
20260506094547 57 348 1.0 4.0 0.00 0.00 0.00 79 1017.5
20260506094039 57 15 0.0 2.0 0.00 0.00 0.00 79 1017.4
20260506093535 57 338 0.0 2.0 0.00 0.00 0.00 79 1017.4
20260506093052 57 335 0.0 2.0 0.00 0.00 0.00 79 1017.3
20260506092535 57 333 0.0 3.0 0.00 0.00 0.00 79 1017.3
20260506092037 57 345 1.0 3.0 0.00 0.00 0.00 79 1017.2
20260506091545 57 12 1.0 3.0 0.00 0.00 0.00 78 1017.4
20260506091036 57 348 1.0 5.0 0.00 0.00 0.00 78 1017.4
20260506090536 57 19 2.0 5.0 0.00 0.00 0.00 78 1017.2
20260506090050 57 350 2.0 4.0 0.00 0.00 0.00 78 1017.2
20260506085535 57 323 1.0 4.0 0.00 0.00 0.00 78 1017.3
20260506085036 57 334 1.0 4.0 0.00 0.00 0.00 78 1017.2
20260506084549 58 11 2.0 4.0 0.00 0.00 0.00 78 1017.2
20260506084036 58 5 1.0 4.0 0.00 0.00 0.00 78 1017.3
20260506083536 58 319 1.0 4.0 0.00 0.00 0.00 78 1017.3
20260506083108 58 313 0.0 3.0 0.00 0.00 0.00 78 1017.2
20260506082536 58 19 1.0 3.0 0.00 0.00 0.00 78 1017.2
20260506082035 58 352 1.0 4.0 0.00 0.00 0.00 78 1017.2
20260506081549 58 325 0.0 4.0 0.00 0.00 0.00 78 1017.3
20260506081036 58 352 2.0 4.0 0.00 0.00 0.00 77 1017.2
20260506080538 58 342 1.0 4.0 0.00 0.00 0.00 77 1017.2
20260506073046 59 21 1.0 3.0 0.00 0.00 0.00 77 1016.8
20260506072535 59 13 1.0 2.0 0.00 0.00 0.00 77 1016.9
20260506072035 59 346 1.0 3.0 0.00 0.00 0.00 77 1016.8
20260506071552 59 11 1.0 3.0 0.00 0.00 0.00 77 1016.8
20260506071035 59 331 1.0 4.0 0.00 0.00 0.00 77 1016.8
20260506070536 59 345 1.0 4.0 0.00 0.00 0.00 77 1016.7
20260506062035 60 315 0.0 2.0 0.00 0.00 0.00 79 1016.5
20260506061547 59 316 0.0 2.0 0.00 0.00 0.00 80 1016.4
20260506061035 59 0 0.0 1.0 0.00 0.00 0.00 81 1016.4
20260506060535 59 59 0.0 0.0 0.00 0.00 0.00 81 1016.5